This demonstration page uses our WeatherBlox Daily Observations layout. Learn more.

Left ArrowRight Arrow

39.08367, -84.50855

Hourly Observations for August 9, 2015

Temp ( °F °C ) Dew Point ( °F °C ) Humidity (%) Winds ( mph kmh ) Pressure ( in mb ) Visibility ( mi km ) Precip ( " mm )
12:53 am 00:53 Clear 67 19.4 66 18.9 97 97 N N/A 29.99 1016 10 16 N/A
1:53 am 01:53 Clear 67 19.4 66 18.9 97 97 N N/A 29.99 1016 7 11 N/A
2:53 am 02:53 Mostly Clear with Mist and Fog 65 18.3 65 18.3 100 100 N N/A 29.99 1016 5 8 N/A
3:53 am 03:53 Mostly Clear with Mist and Fog 66 18.9 65 18.3 96 96 N N/A 29.99 1016 6 10 N/A
4:53 am 04:53 Mostly Cloudy with Mist and Fog 64 17.8 64 17.8 100 100 ENE 3 6 29.99 1016 6 10 N/A
5:31 am 05:31 Cloudy with Mist and Fog 65 18.3 65 18.3 100 100 N N/A 29.97 1015 6 10 N/A
5:53 am 05:53 Cloudy with Mist and Fog 66 18.9 66 18.9 100 100 N N/A 29.99 1016 5 8 N/A
5:59 am 05:59 Cloudy with Mist and Fog 66 18.9 66 18.9 100 100 N N/A 29.97 1015 2 3 N/A
6:07 am 06:07 Mostly Cloudy with Fog 66 18.9 66 18.9 100 100 N N/A 29.97 1015 0 0 N/A
6:53 am 06:53 Mostly Cloudy with Fog 65 18.3 65 18.3 100 100 N N/A 30.01 1016 5 8 N/A
7:53 am 07:53 Mostly Cloudy with Fog 66 18.9 66 18.9 100 100 N N/A 30.00 1016 0 0 N/A
8:53 am 08:53 Mostly Cloudy with Fog 67 19.4 67 19.4 100 100 N N/A 30.02 1017 5 8 N/A
9:10 am 09:10 Partly Cloudy with Mist and Fog 68 20 68 20 100 100 N N/A 30.00 1016 1 2 N/A
9:22 am 09:22 Partly Cloudy with Mist and Fog 70 21 70 21 100 100 N N/A 30.00 1016 6 10 N/A
9:53 am 09:53 Sunny 72 22.2 69 20.6 91 91 N N/A 30.01 1016 10 16 N/A
10:53 am 10:53 Sunny 78 25.6 70 21.1 76 76 N N/A 30.03 1017 10 16 N/A
11:53 am 11:53 Sunny 81 27.2 68 20 65 65 N N/A 30.02 1017 10 16 N/A
12:53 pm 12:53 Partly Cloudy 82 27.8 68 20 63 63 SSW 6 9 30.02 1017 10 16 N/A
1:53 pm 13:53 Sunny 81 27.2 68 20 65 65 N N/A 30.01 1016 10 16 N/A
2:53 pm 14:53 Cloudy with Light Rain 81 27.2 69 20.6 67 67 ESE 3 6 29.98 1015 10 16 N/A
3:53 pm 15:53 Mostly Cloudy 81 27.2 71 21.7 72 72 SSE 5 7 29.98 1015 10 16 N/A
4:53 pm 16:53 Mostly Sunny 83 28.3 71 21.7 67 67 SSE 9 15 29.96 1015 10 16 N/A
5:53 pm 17:53 Mostly Sunny 80 26.7 70 21.1 71 71 S 3 6 29.95 1014 10 16 N/A
6:53 pm 18:53 Mostly Sunny 78 25.6 73 22.8 85 85 N N/A 29.96 1015 10 16 N/A
7:53 pm 19:53 Mostly Sunny 75 23.9 73 22.8 94 94 S 3 6 29.95 1014 10 16 N/A
8:53 pm 20:53 Mostly Cloudy 75 23.9 72 22.2 90 90 N N/A 29.95 1014 10 16 N/A
9:53 pm 21:53 Cloudy 74 23.3 72 22.2 94 94 N N/A 29.96 1014 10 16 N/A
10:53 pm 22:53 Cloudy 74 23.3 72 22.2 94 94 N N/A 29.96 1015 9 14 N/A
11:53 pm 23:53 Mostly Cloudy 73 22.8 72 22.2 96 96 ENE 3 6 29.95 1014 8 13 N/A

Powered by AerisWeather